Time,TemperatureF,DewpointF,PressureIn,WindDirection,WindDirectionDegrees,WindSpeedMPH,WindSpeedGustMPH,Humidity,HourlyPrecipIn,Conditions,Clouds,dailyrainin,SolarRadiationWatts/m^2,SoftwareType,DateUTC
2013-02-13 00:02:00,32.0,24.0,-100.00,WSW,251,3.0,6.0,72,0.00,,,0.00,0.000000,,2013-02-13 07:02:00,
2013-02-13 00:11:00,32.0,24.0,-100.00,WSW,251,3.0,6.0,72,0.00,,,0.00,0.000000,,2013-02-13 07:11:00,
2013-02-13 00:21:00,32.0,24.0,-100.00,WSW,251,3.0,6.0,72,0.00,,,0.00,0.000000,,2013-02-13 07:21:00,
2013-02-13 00:52:00,33.0,24.0,-100.00,WSW,238,4.0,8.0,70,0.00,,,0.00,0.000000,,2013-02-13 07:52:00,
2013-02-13 01:01:00,33.0,24.0,-100.00,WSW,238,4.0,8.0,70,0.00,,,0.00,0.000000,,2013-02-13 08:01:00,
2013-02-13 01:11:00,33.0,24.0,-100.00,WSW,238,4.0,8.0,70,0.00,,,0.00,0.000000,,2013-02-13 08:11:00,
2013-02-13 01:21:00,33.0,24.0,-100.00,WSW,238,4.0,8.0,70,0.00,,,0.00,0.000000,,2013-02-13 08:21:00,
2013-02-13 01:52:00,33.0,24.0,-100.00,SW,223,6.0,9.0,68,0.00,,,0.00,0.000000,,2013-02-13 08:52:00,
2013-02-13 02:01:00,33.0,24.0,-100.00,SW,223,6.0,9.0,68,0.00,,,0.00,0.000000,,2013-02-13 09:01:00,
2013-02-13 02:11:00,33.0,24.0,-100.00,SW,223,6.0,9.0,68,0.00,,,0.00,0.000000,,2013-02-13 09:11:00,
2013-02-13 02:21:00,33.0,24.0,-100.00,SW,223,6.0,9.0,68,0.00,,,0.00,0.000000,,2013-02-13 09:21:00,
2013-02-13 02:42:00,34.0,25.0,-100.00,SW,233,6.0,10.0,69,0.00,,,0.00,0.000000,,2013-02-13 09:42:00,
2013-02-13 02:52:00,34.0,25.0,-100.00,SW,233,6.0,10.0,69,0.00,,,0.00,0.000000,,2013-02-13 09:52:00,
2013-02-13 03:01:00,34.0,25.0,-100.00,SW,233,6.0,10.0,69,0.00,,,0.00,0.000000,,2013-02-13 10:01:00,
2013-02-13 03:11:00,34.0,25.0,-100.00,SW,233,6.0,10.0,69,0.00,,,0.00,0.000000,,2013-02-13 10:11:00,
2013-02-13 03:21:00,34.0,25.0,-100.00,SW,233,6.0,10.0,69,0.00,,,0.00,0.000000,,2013-02-13 10:21:00,
2013-02-13 03:52:00,34.0,24.0,-100.00,WSW,243,6.0,14.0,67,0.00,,,0.00,0.000000,,2013-02-13 10:52:00,
2013-02-13 04:01:00,34.0,24.0,-100.00,WSW,243,6.0,14.0,67,0.00,,,0.00,0.000000,,2013-02-13 11:01:00,
2013-02-13 04:11:00,34.0,24.0,-100.00,WSW,243,6.0,14.0,67,0.00,,,0.00,0.000000,,2013-02-13 11:11:00,
2013-02-13 04:22:00,34.0,24.0,-100.00,WSW,243,6.0,14.0,67,0.00,,,0.00,0.000000,,2013-02-13 11:22:00,
2013-02-13 04:42:00,34.0,23.0,-100.00,WSW,256,6.0,13.0,65,0.00,,,0.00,0.000000,,2013-02-13 11:42:00,
2013-02-13 04:52:00,34.0,23.0,-100.00,WSW,256,6.0,13.0,65,0.00,,,0.00,0.000000,,2013-02-13 11:52:00,
2013-02-13 05:02:00,34.0,23.0,-100.00,WSW,256,6.0,13.0,65,0.00,,,0.00,0.000000,,2013-02-13 12:02:00,
2013-02-13 05:11:00,34.0,23.0,-100.00,WSW,256,6.0,13.0,65,0.00,,,0.00,0.000000,,2013-02-13 12:11:00,
2013-02-13 05:21:00,34.0,23.0,-100.00,WSW,256,6.0,13.0,65,0.00,,,0.00,0.000000,,2013-02-13 12:21:00,
2013-02-13 05:52:00,35.0,24.0,-100.00,West,259,7.0,15.0,63,0.00,,,0.00,0.000000,,2013-02-13 12:52:00,
2013-02-13 06:02:00,35.0,24.0,-100.00,West,259,7.0,15.0,63,0.00,,,0.00,0.000000,,2013-02-13 13:02:00,
2013-02-13 06:11:00,35.0,24.0,-100.00,West,259,7.0,15.0,63,0.00,,,0.00,0.000000,,2013-02-13 13:11:00,
2013-02-13 06:21:00,35.0,24.0,-100.00,West,259,7.0,15.0,63,0.00,,,0.00,0.000000,,2013-02-13 13:21:00,
2013-02-13 06:52:00,37.0,26.0,-100.00,WNW,286,9.0,16.0,63,0.00,,,0.00,0.000000,,2013-02-13 13:52:00,
2013-02-13 07:01:00,37.0,26.0,-100.00,WNW,286,9.0,16.0,63,0.00,,,0.00,0.000000,,2013-02-13 14:01:00,
2013-02-13 07:11:00,37.0,26.0,-100.00,WNW,286,9.0,16.0,63,0.00,,,0.00,0.000000,,2013-02-13 14:11:00,
2013-02-13 07:21:00,37.0,26.0,-100.00,WNW,286,9.0,16.0,63,0.00,,,0.00,0.000000,,2013-02-13 14:21:00,
2013-02-13 07:52:00,37.0,27.0,-100.00,WNW,285,11.0,19.0,66,0.00,,,0.00,0.000000,,2013-02-13 14:52:00,
2013-02-13 08:01:00,37.0,27.0,-100.00,WNW,285,11.0,19.0,66,0.00,,,0.00,0.000000,,2013-02-13 15:01:00,
2013-02-13 08:11:00,37.0,27.0,-100.00,WNW,285,11.0,19.0,66,0.00,,,0.00,0.000000,,2013-02-13 15:11:00,
2013-02-13 08:21:00,37.0,27.0,-100.00,WNW,285,11.0,19.0,66,0.00,,,0.00,0.000000,,2013-02-13 15:21:00,
2013-02-13 08:52:00,39.0,28.0,-100.00,WNW,289,11.0,27.0,65,0.00,,,0.00,0.000000,,2013-02-13 15:52:00,
2013-02-13 09:01:00,39.0,28.0,-100.00,WNW,289,11.0,27.0,65,0.00,,,0.00,0.000000,,2013-02-13 16:01:00,
2013-02-13 09:11:00,39.0,28.0,-100.00,WNW,289,11.0,27.0,65,0.00,,,0.00,0.000000,,2013-02-13 16:11:00,
2013-02-13 09:21:00,39.0,28.0,-100.00,WNW,289,11.0,27.0,65,0.00,,,0.00,0.000000,,2013-02-13 16:21:00,
2013-02-13 09:52:00,40.0,32.0,-100.00,WNW,286,11.0,26.0,74,0.00,,,0.00,38.000000,,2013-02-13 16:52:00,
2013-02-13 10:01:00,40.0,32.0,-100.00,WNW,286,11.0,26.0,74,0.00,,,0.00,38.000000,,2013-02-13 17:01:00,
2013-02-13 10:11:00,40.0,32.0,-100.00,WNW,286,11.0,26.0,74,0.00,,,0.00,38.000000,,2013-02-13 17:11:00,
2013-02-13 10:21:00,40.0,32.0,-100.00,WNW,286,11.0,26.0,74,0.00,,,0.00,38.000000,,2013-02-13 17:21:00,
2013-02-13 10:42:00,39.0,29.0,-100.00,WNW,284,8.0,29.0,66,0.00,,,0.00,111.000000,,2013-02-13 17:42:00,
2013-02-13 10:52:00,39.0,29.0,-100.00,WNW,284,8.0,29.0,66,0.00,,,0.00,111.000000,,2013-02-13 17:52:00,
2013-02-13 11:02:00,39.0,29.0,-100.00,WNW,284,8.0,29.0,66,0.00,,,0.00,111.000000,,2013-02-13 18:02:00,
2013-02-13 11:11:00,39.0,29.0,-100.00,WNW,284,8.0,29.0,66,0.00,,,0.00,111.000000,,2013-02-13 18:11:00,
2013-02-13 11:22:00,39.0,29.0,-100.00,WNW,284,8.0,29.0,66,0.00,,,0.00,111.000000,,2013-02-13 18:22:00,
2013-02-13 11:52:00,41.0,27.0,-100.00,WNW,286,11.0,22.0,57,0.00,,,0.00,135.000000,,2013-02-13 18:52:00,
2013-02-13 12:01:00,41.0,27.0,-100.00,WNW,286,11.0,22.0,57,0.00,,,0.00,135.000000,,2013-02-13 19:01:00,
2013-02-13 12:11:00,41.0,27.0,-100.00,WNW,286,11.0,22.0,57,0.00,,,0.00,135.000000,,2013-02-13 19:11:00,
2013-02-13 12:21:00,41.0,27.0,-100.00,WNW,286,11.0,22.0,57,0.00,,,0.00,135.000000,,2013-02-13 19:21:00,
2013-02-13 12:42:00,43.0,28.0,-100.00,WNW,291,7.0,21.0,54,0.00,,,0.00,294.000000,,2013-02-13 19:42:00,
2013-02-13 12:52:00,43.0,28.0,-100.00,WNW,291,7.0,21.0,54,0.00,,,0.00,294.000000,,2013-02-13 19:52:00,
2013-02-13 13:02:00,43.0,28.0,-100.00,WNW,291,7.0,21.0,54,0.00,,,0.00,294.000000,,2013-02-13 20:02:00,
2013-02-13 13:11:00,43.0,28.0,-100.00,WNW,291,7.0,21.0,54,0.00,,,0.00,294.000000,,2013-02-13 20:11:00,
2013-02-13 13:21:00,43.0,28.0,-100.00,WNW,291,7.0,21.0,54,0.00,,,0.00,294.000000,,2013-02-13 20:21:00,
2013-02-13 13:52:00,44.0,27.0,-100.00,WNW,303,11.0,19.0,51,0.00,,,0.00,286.000000,,2013-02-13 20:52:00,
2013-02-13 14:01:00,44.0,27.0,-100.00,WNW,303,11.0,19.0,51,0.00,,,0.00,286.000000,,2013-02-13 21:01:00,
2013-02-13 14:11:00,44.0,27.0,-100.00,WNW,303,11.0,19.0,51,0.00,,,0.00,286.000000,,2013-02-13 21:11:00,
2013-02-13 14:21:00,44.0,27.0,-100.00,WNW,303,11.0,19.0,51,0.00,,,0.00,286.000000,,2013-02-13 21:21:00,
2013-02-13 14:52:00,45.0,30.0,-100.00,NW,313,9.0,24.0,56,0.00,,,0.00,400.000000,,2013-02-13 21:52:00,
2013-02-13 15:02:00,45.0,30.0,-100.00,NW,313,9.0,24.0,56,0.00,,,0.00,400.000000,,2013-02-13 22:02:00,
2013-02-13 15:11:00,45.0,30.0,-100.00,NW,313,9.0,24.0,56,0.00,,,0.00,400.000000,,2013-02-13 22:11:00,
2013-02-13 15:21:00,45.0,30.0,-100.00,NW,313,9.0,24.0,56,0.00,,,0.00,400.000000,,2013-02-13 22:21:00,
2013-02-13 15:42:00,41.0,27.0,-100.00,NW,307,9.0,23.0,56,0.00,,,0.00,254.000000,,2013-02-13 22:42:00,
2013-02-13 15:52:00,41.0,27.0,-100.00,NW,307,9.0,23.0,56,0.00,,,0.00,254.000000,,2013-02-13 22:52:00,
2013-02-13 16:01:00,41.0,27.0,-100.00,NW,307,9.0,23.0,56,0.00,,,0.00,254.000000,,2013-02-13 23:01:00,
2013-02-13 16:11:00,41.0,27.0,-100.00,NW,307,9.0,23.0,56,0.00,,,0.00,254.000000,,2013-02-13 23:11:00,
2013-02-13 16:21:00,41.0,27.0,-100.00,NW,307,9.0,23.0,56,0.00,,,0.00,254.000000,,2013-02-13 23:21:00,
2013-02-13 16:42:00,40.0,26.0,-100.00,NW,304,10.0,23.0,57,0.00,,,0.00,142.000000,,2013-02-13 23:42:00,
2013-02-13 16:52:00,40.0,26.0,-100.00,NW,304,10.0,23.0,57,0.00,,,0.00,142.000000,,2013-02-13 23:52:00,
2013-02-13 17:02:00,40.0,26.0,-100.00,NW,304,10.0,23.0,57,0.00,,,0.00,142.000000,,2013-02-14 00:02:00,
2013-02-13 17:11:00,40.0,26.0,-100.00,NW,304,10.0,23.0,57,0.00,,,0.00,142.000000,,2013-02-14 00:11:00,
2013-02-13 17:21:00,40.0,26.0,-100.00,NW,304,10.0,23.0,57,0.00,,,0.00,142.000000,,2013-02-14 00:21:00,
2013-02-13 17:42:00,40.0,28.0,-100.00,NW,311,9.0,31.0,63,0.00,,,0.00,63.000000,,2013-02-14 00:42:00,
2013-02-13 17:52:00,40.0,28.0,-100.00,NW,311,9.0,31.0,63,0.00,,,0.00,63.000000,,2013-02-14 00:52:00,
2013-02-13 18:01:00,40.0,28.0,-100.00,NW,311,9.0,31.0,63,0.00,,,0.00,63.000000,,2013-02-14 01:01:00,
2013-02-13 18:11:00,40.0,28.0,-100.00,NW,311,9.0,31.0,63,0.00,,,0.00,63.000000,,2013-02-14 01:11:00,
2013-02-13 18:21:00,40.0,28.0,-100.00,NW,311,9.0,31.0,63,0.00,,,0.00,63.000000,,2013-02-14 01:21:00,
2013-02-13 18:52:00,38.0,29.0,-100.00,NW,307,7.0,22.0,71,0.00,,,0.00,32.000000,,2013-02-14 01:52:00,
2013-02-13 19:01:00,38.0,29.0,-100.00,NW,307,7.0,22.0,71,0.00,,,0.00,32.000000,,2013-02-14 02:01:00,
2013-02-13 19:11:00,38.0,29.0,-100.00,NW,307,7.0,22.0,71,0.00,,,0.00,32.000000,,2013-02-14 02:11:00,
2013-02-13 19:21:00,38.0,29.0,-100.00,NW,307,7.0,22.0,71,0.00,,,0.00,32.000000,,2013-02-14 02:21:00,
2013-02-13 20:02:00,35.0,27.0,-100.00,WNW,301,5.0,21.0,73,0.00,,,0.00,0.000000,,2013-02-14 03:02:00,
2013-02-13 20:11:00,35.0,27.0,-100.00,WNW,301,5.0,21.0,73,0.00,,,0.00,0.000000,,2013-02-14 03:11:00,
2013-02-13 20:22:00,35.0,27.0,-100.00,WNW,301,5.0,21.0,73,0.00,,,0.00,0.000000,,2013-02-14 03:22:00,
2013-02-13 20:52:00,32.0,18.0,-100.00,WNW,291,7.0,15.0,56,0.00,,,0.00,0.000000,,2013-02-14 03:52:00,
2013-02-13 21:01:00,32.0,18.0,-100.00,WNW,291,7.0,15.0,56,0.00,,,0.00,0.000000,,2013-02-14 04:01:00,
2013-02-13 21:12:00,32.0,18.0,-100.00,WNW,291,7.0,15.0,56,0.00,,,0.00,0.000000,,2013-02-14 04:12:00,
2013-02-13 21:21:00,32.0,18.0,-100.00,WNW,291,7.0,15.0,56,0.00,,,0.00,0.000000,,2013-02-14 04:21:00,
2013-02-13 21:52:00,32.0,18.0,-100.00,WNW,299,7.0,16.0,55,0.00,,,0.00,0.000000,,2013-02-14 04:52:00,
2013-02-13 22:02:00,32.0,18.0,-100.00,WNW,299,7.0,16.0,55,0.00,,,0.00,0.000000,,2013-02-14 05:02:00,
2013-02-13 22:11:00,32.0,18.0,-100.00,WNW,299,7.0,16.0,55,0.00,,,0.00,0.000000,,2013-02-14 05:11:00,
2013-02-13 22:21:00,32.0,18.0,-100.00,WNW,299,7.0,16.0,55,0.00,,,0.00,0.000000,,2013-02-14 05:21:00,
2013-02-13 22:42:00,33.0,20.0,-100.00,NW,305,10.0,25.0,58,0.00,,,0.00,0.000000,,2013-02-14 05:42:00,
2013-02-13 22:52:00,33.0,20.0,-100.00,NW,305,10.0,25.0,58,0.00,,,0.00,0.000000,,2013-02-14 05:52:00,
2013-02-13 23:02:00,33.0,20.0,-100.00,NW,305,10.0,25.0,58,0.00,,,0.00,0.000000,,2013-02-14 06:02:00,
2013-02-13 23:11:00,33.0,20.0,-100.00,NW,305,10.0,25.0,58,0.00,,,0.00,0.000000,,2013-02-14 06:11:00,
2013-02-13 23:21:00,33.0,20.0,-100.00,NW,305,10.0,25.0,58,0.00,,,0.00,0.000000,,2013-02-14 06:21:00,
2013-02-13 23:52:00,31.0,21.0,-100.00,NW,305,6.0,26.0,66,0.00,,,0.00,0.000000,,2013-02-14 06:52:00,